Gainesville, GA

10:20 PM EDT on September 25, 2017 (GMT -0400)
Gilmer Memorial

Weather History for KGVL - January, 2012

Change the Weather History Date:

Thursday, January 26, 2012

  Actual Average Record
Temperature  
Mean Temperature 56 °F 42 °F  
Max Temperature 61 °F 51 °F 71 °F (1989)
Min Temperature 51 °F 34 °F 0 °F (1940)
Degree Days  
Heating Degree Days 9 23  
Month to date heating degree days 614  
Since 1 July heating degree days 1810  
Growing Degree Days 6 (Base 50)    
Moisture  
Dew Point 53 °F    
Average Humidity 95    
Maximum Humidity 100    
Minimum Humidity 67    
Precipitation  
Precipitation 0.19 in 0.20 in 2.80 in (1976)
Month to date precipitation 4.05  
Year to date precipitation 4.05  
Snow  
Snow 0.00 in - - ()
Month to date snowfall  
Since 1 July snowfall  
Snow Depth -    
Sea Level Pressure  
Sea Level Pressure 29.93 in    
Wind  
Wind Speed 8 mph (ESE)    
Max Wind Speed 16 mph    
Max Gust Speed 28 mph    
Visibility 4 miles    
Events Fog , Rain    
T = Trace of Precipitation, MM = Missing Value Source: NWS Daily Summary

Daily Weather History Graph

Daily Weather History Graph

Search for Another Location

Airport or City:

Trip Planner

Search our weather history database for the weather conditions in past years. The results will help you decide how hot, cold, wet, or windy it might be!

Date:

Astronomy

Jan. 26, 2012 Rise Set
Actual Time 7:36 AM EST 5:58 PM EST
Civil Twilight 7:10 AM EST 6:25 PM EST
Nautical Twilight 6:39 AM EST 6:55 PM EST
Astronomical Twilight 6:10 AM EST 7:25 PM EST
Moon 9:15 AM EST 9:37 PM EST
Length of Visible Light 11h 15m
Length of Day
10h 21m
Waxing Crescent, 12% of the Moon is Illuminated
Jan 26
Waxing Crescent
Jan 30
First Quarter
Feb 7
Full
Feb 14
Last Quarter
Feb 21
New

Hourly Weather History & Observations

Time (EST) Temp. Dew Point Humidity Pressure Visibility Wind Dir Wind Speed Gust Speed Precip Events Conditions
12:53 AM 53.1 °F 43.0 °F 69% 30.14 in 10.0 mi East 8.1 mph - N/A   Mostly Cloudy
1:53 AM 53.1 °F 43.0 °F 69% 30.12 in 10.0 mi East 5.8 mph - N/A   Mostly Cloudy
2:27 AM 53.6 °F 42.8 °F 67% 30.13 in 10.0 mi East 8.1 mph - N/A   Overcast
2:40 AM 53.6 °F 42.8 °F 67% 30.13 in 10.0 mi East 8.1 mph - N/A   Overcast
2:53 AM 53.1 °F 43.0 °F 69% 30.11 in 10.0 mi East 9.2 mph - N/A   Overcast
3:44 AM 53.6 °F 46.4 °F 77% 30.12 in 10.0 mi ESE 6.9 mph - N/A   Overcast
3:53 AM 53.1 °F 46.9 °F 80% 30.10 in 10.0 mi ESE 6.9 mph - N/A   Overcast
4:53 AM 53.1 °F 48.9 °F 86% 30.08 in 9.0 mi East 8.1 mph - N/A   Overcast
5:53 AM 52.0 °F 48.9 °F 89% 30.08 in 7.0 mi ENE 6.9 mph - N/A   Overcast
6:18 AM 51.8 °F 50.0 °F 94% 30.09 in 3.0 mi East 6.9 mph - N/A   Overcast
6:28 AM 51.8 °F 50.0 °F 94% 30.09 in 2.5 mi East 6.9 mph - N/A   Overcast
6:39 AM 51.8 °F 50.0 °F 94% 30.09 in 3.0 mi East 8.1 mph - N/A   Overcast
6:53 AM 51.1 °F 51.1 °F 100% 30.09 in 3.0 mi East 5.8 mph - N/A   Overcast
7:01 AM 51.8 °F 51.8 °F 100% 30.09 in 2.0 mi East 6.9 mph - N/A   Overcast
7:16 AM 51.8 °F 51.8 °F 100% 30.09 in 3.0 mi ENE 6.9 mph - N/A   Overcast
7:50 AM 51.8 °F 51.8 °F 100% 30.08 in 2.0 mi East 9.2 mph - N/A   Overcast
7:53 AM 52.0 °F 51.1 °F 97% 30.07 in 1.8 mi East 9.2 mph - N/A   Overcast
8:11 AM 51.8 °F 51.8 °F 100% 30.08 in 2.0 mi East 9.2 mph - N/A   Overcast
8:19 AM 51.8 °F 51.8 °F 100% 30.08 in 1.8 mi East 5.8 mph - N/A   Overcast
8:30 AM 51.8 °F 51.8 °F 100% 30.08 in 1.2 mi East 4.6 mph - N/A   Overcast
8:35 AM 51.8 °F 51.8 °F 100% 30.07 in 0.8 mi East 8.1 mph - N/A   Overcast
8:53 AM 52.0 °F 52.0 °F 100% 30.06 in 0.5 mi East 6.9 mph - N/A Fog Fog
9:53 AM 52.0 °F 52.0 °F 100% 30.04 in 0.2 mi East 8.1 mph - N/A Fog Fog
10:53 AM 53.1 °F 53.1 °F 100% 30.04 in 0.2 mi East 4.6 mph - N/A Fog Fog
11:53 AM 53.1 °F 53.1 °F 100% 30.00 in 0.2 mi East 6.9 mph - N/A Fog Fog
12:53 PM 54.0 °F 54.0 °F 100% 29.95 in 0.2 mi ESE 4.6 mph - N/A Fog Fog
1:53 PM 55.0 °F 55.0 °F 100% 29.91 in 0.2 mi East 6.9 mph - N/A Fog Fog
2:53 PM 55.0 °F 55.0 °F 100% 29.88 in 0.2 mi East 6.9 mph - N/A Fog Fog
3:53 PM 55.9 °F 55.9 °F 100% 29.87 in 0.2 mi East 6.9 mph - N/A Fog Fog
4:53 PM 55.0 °F 55.0 °F 100% 29.84 in 0.2 mi East 9.2 mph - N/A Fog Fog
5:53 PM 54.0 °F 54.0 °F 100% 29.84 in 1.2 mi East 8.1 mph - 0.03 in Rain Light Rain
5:56 PM 53.6 °F 53.6 °F 100% 29.86 in 2.0 mi East 8.1 mph - 0.01 in Rain Light Rain
5:59 PM 53.6 °F 53.6 °F 100% 29.86 in 3.0 mi ESE 5.8 mph - 0.01 in Rain Light Rain
6:05 PM 53.6 °F 53.6 °F 100% 29.85 in 2.5 mi ESE 8.1 mph - 0.03 in Rain Rain
6:12 PM 53.6 °F 53.6 °F 100% 29.85 in 1.8 mi ESE 6.9 mph - 0.03 in Rain Rain
6:20 PM 53.6 °F 53.6 °F 100% 29.83 in 1.2 mi ESE 8.1 mph - 0.04 in Rain Light Rain
6:45 PM 53.6 °F 53.6 °F 100% 29.82 in 1.8 mi ESE 8.1 mph - 0.06 in Rain Light Rain
6:49 PM 53.6 °F 53.6 °F 100% 29.82 in 2.5 mi ESE 10.4 mph - 0.07 in Rain Rain
6:53 PM 54.0 °F 54.0 °F 100% 29.80 in 2.5 mi ESE 9.2 mph - 0.08 in Rain Rain
7:03 PM 53.6 °F 53.6 °F 100% 29.80 in 3.0 mi East 9.2 mph - 0.00 in Rain Light Rain
7:12 PM 55.4 °F 55.4 °F 100% 29.80 in 4.0 mi ESE 8.1 mph - 0.00 in Rain Light Rain
7:30 PM 55.4 °F 55.4 °F 100% 29.81 in 2.0 mi SE 8.1 mph - 0.01 in Rain Light Rain
7:37 PM 53.6 °F 53.6 °F 100% 29.80 in 0.8 mi ESE 9.2 mph - 0.02 in Rain Light Rain
7:43 PM 55.4 °F 55.4 °F 100% 29.80 in 1.0 mi ESE 9.2 mph - 0.03 in Rain Rain
7:48 PM 55.4 °F 55.4 °F 100% 29.80 in 1.8 mi SE 9.2 mph - 0.04 in Rain Rain
7:53 PM 55.0 °F 55.0 °F 100% 29.77 in 1.8 mi ESE 11.5 mph 16.1 mph 0.06 in Rain Rain
8:02 PM 55.4 °F 55.4 °F 100% 29.77 in 1.2 mi ESE 11.5 mph - 0.02 in Rain Rain
8:09 PM 55.4 °F 55.4 °F 100% 29.76 in 2.0 mi ESE 12.7 mph - 0.02 in Rain Light Rain
8:12 PM 55.4 °F 55.4 °F 100% 29.76 in 3.0 mi SE 12.7 mph - 0.02 in Rain Light Rain
8:19 PM 57.2 °F 57.2 °F 100% 29.76 in 5.0 mi SE 10.4 mph - 0.02 in Rain Light Rain
8:29 PM 57.2 °F 57.2 °F 100% 29.78 in 8.0 mi SSE 8.1 mph 17.3 mph 0.02 in   Mostly Cloudy
8:36 PM 57.2 °F 57.2 °F 100% 29.78 in 6.0 mi SSE 6.9 mph - 0.02 in   Mostly Cloudy
8:48 PM 57.2 °F 57.2 °F 100% 29.77 in 4.0 mi SSE 5.8 mph - 0.02 in   Overcast
8:53 PM 57.0 °F 57.0 °F 100% 29.75 in 4.0 mi SE 4.6 mph - 0.02 in   Overcast
9:09 PM 57.2 °F 57.2 °F 100% 29.76 in 5.0 mi South 5.8 mph - N/A   Mostly Cloudy
9:53 PM 61.0 °F 59.0 °F 93% 29.73 in 10.0 mi South 9.2 mph - 0.00 in   Overcast
10:53 PM 61.0 °F 59.0 °F 93% 29.72 in 9.0 mi SSW 10.4 mph 19.6 mph N/A   Overcast
11:53 PM 61.0 °F 57.9 °F 90% 29.70 in 10.0 mi SSW 16.1 mph 27.6 mph 0.00 in   Overcast